DW7287 Weather Reports


time (UTC)temp
C
wind
direction
speed
KPH
gust
KPH
rain 1hr
cm
rain 24hr
cm
rain mn
cm
humidity
%
barometer
mb
20260510201553 19 360 3.2 16.1 0.00 0.00 0.00 70 1015.5
20260510200056 20 360 3.2 12.9 0.00 0.00 0.00 68 1015.5
20260510194604 20 360 4.8 12.9 0.00 0.00 0.00 68 1015.5
20260510193054 20 360 3.2 12.9 0.00 0.00 0.00 68 1015.5
20260510191615 20 30 3.2 9.7 0.00 0.00 0.00 68 1015.5
20260510190105 21 55 3.2 16.1 0.00 0.00 0.00 68 1015.5
20260510184552 20 38 4.8 14.5 0.00 0.00 0.00 67 1015.7
20260510183059 20 39 4.8 16.1 0.00 0.00 0.00 68 1015.5
20260510181554 20 0 1.6 12.9 0.00 0.00 0.00 68 1015.5
20260510180058 20 92 4.8 14.5 0.00 0.00 0.00 68 1015.3
20260510174607 20 42 4.8 14.5 0.00 0.00 0.00 68 1015.3
20260510173100 20 360 3.2 12.9 0.00 0.00 0.00 71 1015.3
20260510171555 19 360 3.2 9.7 0.00 0.00 0.00 69 1015.2
20260510170108 20 17 3.2 9.7 0.00 0.00 0.00 68 1015.3
20260510164609 20 0 3.2 8.0 0.00 0.00 0.00 67 1015.3
20260510163059 19 0 1.6 8.0 0.00 0.00 0.00 70 1015.3
20260510161552 18 360 1.6 8.0 0.00 0.00 0.00 73 1015.2
20260510154603 19 360 3.2 12.9 0.00 0.00 0.00 67 1015.2
20260510153053 20 360 3.2 9.7 0.00 0.00 0.00 63 1015.0
20260510151554 20 0 0.0 8.0 0.00 0.00 0.00 63 1014.5
20260510150053 21 244 4.8 12.9 0.00 0.00 0.00 61 1014.8
20260510144607 21 309 3.2 12.9 0.00 0.00 0.00 64 1014.8
20260510143050 20 292 3.2 14.5 0.00 0.00 0.00 63 1014.8
20260510141551 20 306 3.2 12.9 0.00 0.00 0.00 63 1014.9
20260510140050 20 288 4.8 12.9 0.00 0.00 0.00 64 1014.9
20260510134555 19 36 1.6 8.0 0.00 0.00 0.00 66 1014.6
20260510133056 20 319 0.0 9.7 0.00 0.00 0.00 64 1014.4
20260510131552 20 290 0.0 8.0 0.00 0.00 0.00 66 1014.4
20260510130055 18 0 0.0 3.2 0.00 0.00 0.00 70 1014.6
20260510124558 17 82 1.6 8.0 0.00 0.00 0.00 71 1014.5
20260510123053 17 0 0.0 3.2 0.00 0.00 0.00 76 1014.5
20260510121551 15 20 0.0 4.8 0.00 0.00 0.00 80 1014.4
20260510120050 13 16 0.0 3.2 0.00 0.00 0.00 85 1014.3
20260510114553 12 19 0.0 6.4 0.00 0.00 0.00 92 1014.1
20260510113053 11 360 0.0 3.2 0.00 0.00 0.00 93 1013.9
20260510111554 10 0 0.0 0.0 0.00 0.00 0.00 93 1013.6
20260510110055 10 0 0.0 0.0 0.00 0.00 0.00 92 1013.4
20260510104600 10 0 0.0 0.0 0.00 0.00 0.00 91 1013.1
20260510103055 10 0 0.0 1.6 0.00 0.00 0.00 91 1013.0
20260510101553 10 0 0.0 1.6 0.00 0.00 0.00 90 1013.0
20260510100055 10 0 0.0 3.2 0.00 0.00 0.00 89 1012.7
20260510094605 10 360 0.0 1.6 0.00 0.00 0.00 88 1012.4
20260510093116 11 0 0.0 3.2 0.00 0.00 0.00 87 1012.3
20260510091554 11 0 0.0 1.6 0.00 0.00 0.00 85 1012.2
20260510090055 12 0 0.0 1.6 0.00 0.00 0.00 84 1012.1
20260510084554 12 0 0.0 1.6 0.00 0.00 0.00 82 1012.1
20260510083058 13 0 0.0 3.2 0.00 0.00 0.00 82 1011.9
20260510081554 13 0 0.0 3.2 0.00 0.00 0.00 81 1011.8
20260510080051 13 0 0.0 3.2 0.00 0.00 0.00 81 1011.8
20260510074601 13 0 0.0 3.2 0.00 0.00 0.00 81 1011.6
20260510073051 13 0 0.0 4.8 0.00 0.00 0.00 81 1011.6
20260510071558 13 0 0.0 3.2 0.00 0.00 0.00 81 1011.7
20260510070059 13 0 0.0 4.8 0.00 0.00 0.00 81 1011.7
20260510064551 13 0 0.0 3.2 0.00 0.00 0.00 82 1011.7
20260510063051 13 360 0.0 3.2 0.00 0.00 0.00 83 1011.7
20260510061555 13 0 0.0 3.2 0.00 0.00 0.00 82 1011.6
20260510060104 13 0 0.0 4.8 0.00 0.00 0.00 82 1011.9
20260510054558 14 0 0.0 3.2 0.00 0.00 0.00 80 1011.9
20260510053101 15 0 0.0 3.2 0.00 0.00 0.00 79 1012.0
20260510051556 15 0 0.0 3.2 0.00 0.00 0.00 78 1012.1
20260510050056 15 360 0.0 3.2 0.00 0.00 0.00 77 1012.1
20260510044554 15 360 0.0 4.8 0.00 0.00 0.00 77 1012.0
20260510043104 15 360 1.6 4.8 0.00 0.00 0.00 76 1012.0
20260510041601 15 360 0.0 4.8 0.00 0.00 0.00 77 1012.1
20260510040059 15 0 0.0 4.8 0.00 0.00 0.00 76 1012.1
20260510034555 15 0 0.0 8.0 0.00 0.00 0.00 77 1012.1
20260510033104 15 0 0.0 3.2 0.00 0.00 0.00 77 1012.1
20260510031554 15 0 0.0 4.8 0.00 0.00 0.00 77 1011.8
20260510030053 15 0 0.0 4.8 0.00 0.00 0.00 76 1011.7
20260510024557 15 0 0.0 4.8 0.00 0.00 0.00 75 1011.6
20260510023050 15 0 0.0 1.6 0.00 0.00 0.00 73 1011.5
20260510021553 16 0 0.0 4.8 0.00 0.00 0.00 73 1011.4
20260510020055 16 0 1.6 6.4 0.00 0.00 0.00 73 1011.2
20260510014550 16 0 0.0 3.2 0.00 0.00 0.00 72 1011.0
20260510013053 16 0 0.0 4.8 0.00 0.00 0.00 71 1010.7
20260510011553 16 0 0.0 1.6 0.00 0.00 0.00 69 1010.3
20260510010055 17 0 0.0 1.6 0.00 0.00 0.00 68 1010.2
20260510004600 17 0 0.0 1.6 0.00 0.00 0.00 66 1010.1
20260510003051 18 0 0.0 3.2 0.00 0.00 0.00 64 1009.9
20260510001551 18 0 0.0 3.2 0.00 0.00 0.00 63 1009.7
20260510000059 19 0 0.0 3.2 0.00 0.00 0.00 61 1009.5
20260509234551 19 15 0.0 3.2 0.00 0.00 0.00 60 1009.4
20260509233056 20 0 0.0 4.8 0.00 0.00 0.00 59 1009.5
20260509231553 20 183 1.6 4.8 0.00 0.00 0.00 57 1009.4
20260509230057 21 297 0.0 4.8 0.00 0.00 0.00 56 1009.3
20260509224557 21 0 0.0 4.8 0.00 0.00 0.00 55 1009.2
20260509223056 20 0 0.0 8.0 0.00 0.00 0.00 57 1009.2
20260509221550 21 0 1.6 8.0 0.00 0.00 0.00 56 1009.4
20260509220053 21 0 1.6 11.3 0.00 0.00 0.00 55 1009.7
20260509214610 21 288 1.6 9.7 0.00 0.00 0.00 57 1009.6
20260509213056 20 0 0.0 11.3 0.00 0.00 0.00 57 1009.7
20260509211555 20 299 1.6 6.4 0.00 0.00 0.00 58 1009.6
20260509210058 20 0 0.0 8.0 0.00 0.00 0.00 60 1009.6
20260509204554 20 32 0.0 9.7 0.00 0.00 0.00 57 1009.7
20260509203101 21 101 4.8 12.9 0.00 0.00 0.00 56 1009.7